| time (UTC) | temp F | wind direction | speed MPH | gust MPH | rain 1hr in | rain 24hr in | rain mn in | humidity % | barometer mb |
| 20260502164024 | 50 | 34 | 2.0 | 5.0 | 0.00 | 0.00 | 0.00 | 48 | 1018.0 |
| 20260502163523 | 50 | 354 | 2.0 | 5.0 | 0.00 | 0.00 | 0.00 | 49 | 1018.1 |
| 20260502163048 | 49 | 299 | 1.0 | 5.0 | 0.00 | 0.00 | 0.00 | 51 | 1018.0 |
| 20260502162523 | 49 | 310 | 2.0 | 5.0 | 0.00 | 0.00 | 0.00 | 51 | 1018.2 |
| 20260502162025 | 49 | 251 | 2.0 | 4.0 | 0.00 | 0.00 | 0.00 | 53 | 1018.2 |
| 20260502161539 | 48 | 339 | 1.0 | 3.0 | 0.00 | 0.00 | 0.00 | 52 | 1018.2 |
| 20260502161022 | 48 | 265 | 2.0 | 3.0 | 0.00 | 0.00 | 0.00 | 54 | 1018.4 |
| 20260502160524 | 48 | 304 | 1.0 | 3.0 | 0.00 | 0.00 | 0.00 | 54 | 1018.3 |
| 20260502152023 | 46 | 278 | 3.0 | 7.0 | 0.00 | 0.00 | 0.00 | 61 | 1018.4 |
| 20260502151544 | 46 | 344 | 0.0 | 4.0 | 0.00 | 0.00 | 0.00 | 63 | 1018.3 |
| 20260502151022 | 46 | 5 | 2.0 | 4.0 | 0.00 | 0.00 | 0.00 | 60 | 1018.4 |
| 20260502150523 | 46 | 267 | 1.0 | 5.0 | 0.00 | 0.00 | 0.00 | 65 | 1018.4 |
| 20260502130527 | 38 | 319 | 0.0 | 2.0 | 0.00 | 0.00 | 0.00 | 97 | 1018.7 |
| 20260502123526 | 37 | 0 | 0.0 | 1.0 | 0.00 | 0.00 | 0.00 | 97 | 1019.1 |
| 20260502123040 | 36 | 342 | 0.0 | 1.0 | 0.00 | 0.00 | 0.00 | 97 | 1019.1 |
| 20260502122526 | 36 | 0 | 0.0 | 0.0 | 0.00 | 0.00 | 0.00 | 96 | 1019.2 |
| 20260502122024 | 36 | 0 | 0.0 | 1.0 | 0.00 | 0.00 | 0.00 | 96 | 1019.1 |
| 20260502121550 | 36 | 0 | 0.0 | 1.0 | 0.00 | 0.00 | 0.00 | 96 | 1019.0 |
| 20260502121026 | 35 | 0 | 0.0 | 0.0 | 0.00 | 0.00 | 0.00 | 96 | 1019.1 |
| 20260502120526 | 35 | 0 | 0.0 | 1.0 | 0.00 | 0.00 | 0.00 | 96 | 1019.1 |
| 20260502115526 | 35 | 0 | 0.0 | 1.0 | 0.00 | 0.00 | 0.00 | 96 | 1019.1 |
| 20260502115026 | 34 | 0 | 0.0 | 1.0 | 0.00 | 0.00 | 0.00 | 96 | 1018.9 |
| 20260502114545 | 34 | 0 | 0.0 | 1.0 | 0.00 | 0.00 | 0.00 | 96 | 1019.0 |
| 20260502114026 | 34 | 0 | 0.0 | 0.0 | 0.00 | 0.00 | 0.00 | 96 | 1019.1 |
| 20260502113526 | 34 | 0 | 0.0 | 0.0 | 0.00 | 0.00 | 0.00 | 96 | 1019.0 |
| 20260502113046 | 33 | 0 | 0.0 | 0.0 | 0.00 | 0.00 | 0.00 | 96 | 1019.0 |
| 20260502112523 | 33 | 0 | 0.0 | 0.0 | 0.00 | 0.00 | 0.00 | 96 | 1019.2 |
| 20260502112024 | 33 | 0 | 0.0 | 0.0 | 0.00 | 0.00 | 0.00 | 96 | 1019.1 |
| 20260502111539 | 33 | 0 | 0.0 | 1.0 | 0.00 | 0.00 | 0.00 | 96 | 1019.3 |
| 20260502111022 | 33 | 0 | 0.0 | 1.0 | 0.00 | 0.00 | 0.00 | 96 | 1019.4 |
| 20260502110523 | 33 | 80 | 0.0 | 1.0 | 0.00 | 0.00 | 0.00 | 96 | 1019.3 |
| 20260502110048 | 33 | 0 | 0.0 | 0.0 | 0.00 | 0.00 | 0.00 | 95 | 1019.3 |
| 20260502105523 | 33 | 0 | 0.0 | 0.0 | 0.00 | 0.01 | 0.00 | 95 | 1019.3 |
| 20260502105023 | 33 | 0 | 0.0 | 0.0 | 0.00 | 0.01 | 0.00 | 95 | 1019.3 |
| 20260502104547 | 33 | 0 | 0.0 | 0.0 | 0.00 | 0.01 | 0.00 | 95 | 1019.1 |
| 20260502104022 | 33 | 0 | 0.0 | 0.0 | 0.00 | 0.01 | 0.00 | 95 | 1019.1 |
| 20260502103522 | 33 | 0 | 0.0 | 0.0 | 0.00 | 0.01 | 0.00 | 95 | 1019.2 |
| 20260502103045 | 33 | 0 | 0.0 | 0.0 | 0.00 | 0.01 | 0.00 | 95 | 1019.2 |
| 20260502102524 | 33 | 0 | 0.0 | 0.0 | 0.00 | 0.01 | 0.00 | 95 | 1019.0 |
| 20260502102023 | 33 | 0 | 0.0 | 0.0 | 0.00 | 0.01 | 0.00 | 95 | 1019.2 |
| 20260502101552 | 33 | 0 | 0.0 | 0.0 | 0.00 | 0.01 | 0.00 | 95 | 1019.0 |
| 20260502101023 | 33 | 0 | 0.0 | 0.0 | 0.00 | 0.01 | 0.00 | 95 | 1019.1 |
| 20260502100525 | 33 | 0 | 0.0 | 0.0 | 0.00 | 0.01 | 0.00 | 95 | 1019.2 |
| 20260502091023 | 34 | 0 | 0.0 | 0.0 | 0.00 | 0.01 | 0.00 | 94 | 1019.2 |
| 20260502090522 | 34 | 0 | 0.0 | 0.0 | 0.00 | 0.01 | 0.00 | 94 | 1019.1 |
| 20260502071026 | 36 | 0 | 0.0 | 0.0 | 0.00 | 0.01 | 0.00 | 91 | 1018.7 |
| 20260502070527 | 37 | 0 | 0.0 | 0.0 | 0.00 | 0.01 | 0.00 | 91 | 1018.7 |
| 20260502070052 | 37 | 0 | 0.0 | 1.0 | 0.00 | 0.01 | 0.00 | 90 | 1018.8 |
| 20260502065528 | 38 | 0 | 0.0 | 1.0 | 0.00 | 0.01 | 0.00 | 91 | 1018.7 |
| 20260502065029 | 38 | 89 | 0.0 | 1.0 | 0.00 | 0.01 | 0.00 | 91 | 1018.8 |
| 20260502064542 | 38 | 0 | 0.0 | 1.0 | 0.00 | 0.01 | 0.00 | 90 | 1018.9 |
| 20260502064024 | 38 | 0 | 0.0 | 1.0 | 0.00 | 0.01 | 0.00 | 90 | 1018.9 |
| 20260502063524 | 38 | 0 | 0.0 | 0.0 | 0.00 | 0.01 | 0.00 | 89 | 1018.9 |
| 20260502063043 | 38 | 0 | 0.0 | 1.0 | 0.00 | 0.01 | 0.00 | 89 | 1019.0 |
| 20260502062524 | 38 | 0 | 0.0 | 1.0 | 0.00 | 0.01 | 0.00 | 89 | 1019.1 |
| 20260502062024 | 38 | 0 | 0.0 | 1.0 | 0.00 | 0.01 | 0.00 | 89 | 1019.1 |
| 20260502061542 | 38 | 0 | 0.0 | 0.0 | 0.00 | 0.01 | 0.00 | 89 | 1019.2 |
| 20260502061024 | 38 | 0 | 0.0 | 0.0 | 0.00 | 0.01 | 0.00 | 89 | 1019.1 |
| 20260502060523 | 38 | 0 | 0.0 | 1.0 | 0.00 | 0.01 | 0.00 | 88 | 1019.2 |
| 20260502060045 | 38 | 0 | 0.0 | 1.0 | 0.00 | 0.01 | 0.00 | 88 | 1019.2 |
| 20260502055528 | 38 | 47 | 0.0 | 1.0 | 0.00 | 0.01 | 0.00 | 87 | 1019.2 |
| 20260502055031 | 38 | 0 | 0.0 | 0.0 | 0.00 | 0.01 | 0.00 | 87 | 1019.1 |
| 20260502054547 | 39 | 0 | 0.0 | 0.0 | 0.00 | 0.01 | 0.00 | 87 | 1019.2 |
| 20260502054023 | 39 | 0 | 0.0 | 0.0 | 0.00 | 0.01 | 0.00 | 87 | 1019.4 |
| 20260502053524 | 39 | 0 | 0.0 | 1.0 | 0.00 | 0.01 | 0.00 | 86 | 1019.5 |
| 20260502053054 | 39 | 0 | 0.0 | 1.0 | 0.00 | 0.01 | 0.00 | 86 | 1019.6 |
| 20260502052524 | 39 | 0 | 0.0 | 1.0 | 0.00 | 0.01 | 0.00 | 86 | 1019.6 |
| 20260502052025 | 39 | 0 | 0.0 | 0.0 | 0.00 | 0.01 | 0.00 | 86 | 1019.6 |
| 20260502051557 | 39 | 0 | 0.0 | 0.0 | 0.00 | 0.01 | 0.00 | 86 | 1019.6 |
| 20260502051024 | 40 | 0 | 0.0 | 1.0 | 0.00 | 0.01 | 0.00 | 86 | 1019.6 |
| 20260502050528 | 40 | 0 | 0.0 | 1.0 | 0.00 | 0.01 | 0.00 | 87 | 1019.5 |
| 20260502050040 | 40 | 45 | 0.0 | 1.0 | 0.00 | 0.01 | 0.00 | 87 | 1019.5 |
| 20260502045525 | 40 | 0 | 0.0 | 1.0 | 0.00 | 0.01 | 0.00 | 87 | 1019.5 |
| 20260502045027 | 40 | 0 | 0.0 | 0.0 | 0.00 | 0.01 | 0.00 | 87 | 1019.4 |
| 20260502044547 | 40 | 0 | 0.0 | 0.0 | 0.00 | 0.01 | 0.00 | 87 | 1019.3 |
| 20260502044031 | 41 | 0 | 0.0 | 1.0 | 0.00 | 0.01 | 0.00 | 87 | 1019.2 |
| 20260502043524 | 41 | 0 | 0.0 | 2.0 | 0.00 | 0.01 | 0.00 | 87 | 1019.2 |
| 20260502043043 | 41 | 0 | 0.0 | 2.0 | 0.00 | 0.01 | 0.00 | 86 | 1019.1 |
| 20260502042525 | 41 | 284 | 0.0 | 1.0 | 0.00 | 0.01 | 0.00 | 87 | 1019.2 |
| 20260502042024 | 41 | 0 | 0.0 | 1.0 | 0.00 | 0.01 | 0.00 | 86 | 1019.0 |
| 20260502041603 | 42 | 0 | 0.0 | 1.0 | 0.00 | 0.01 | 0.00 | 86 | 1019.2 |
| 20260502041024 | 42 | 0 | 0.0 | 0.0 | 0.00 | 0.01 | 0.00 | 85 | 1019.2 |
| 20260502040524 | 42 | 0 | 0.0 | 1.0 | 0.00 | 0.01 | 0.00 | 85 | 1019.1 |
| 20260502040047 | 43 | 0 | 0.0 | 1.0 | 0.00 | 0.01 | 0.00 | 84 | 1019.2 |
| 20260502035524 | 43 | 349 | 0.0 | 2.0 | 0.00 | 0.01 | 0.01 | 84 | 1019.3 |
| 20260502035027 | 43 | 0 | 0.0 | 2.0 | 0.00 | 0.01 | 0.01 | 83 | 1019.2 |
| 20260502034543 | 43 | 331 | 0.0 | 2.0 | 0.00 | 0.01 | 0.01 | 82 | 1019.3 |
| 20260502034025 | 43 | 306 | 0.0 | 2.0 | 0.00 | 0.01 | 0.01 | 82 | 1019.4 |
| 20260502033526 | 44 | 278 | 0.0 | 2.0 | 0.00 | 0.01 | 0.01 | 82 | 1019.3 |
| 20260502033050 | 44 | 0 | 0.0 | 2.0 | 0.00 | 0.01 | 0.01 | 81 | 1019.2 |
| 20260502032525 | 44 | 288 | 1.0 | 2.0 | 0.00 | 0.01 | 0.01 | 81 | 1019.2 |
| 20260502032026 | 44 | 347 | 0.0 | 3.0 | 0.00 | 0.01 | 0.01 | 80 | 1019.1 |
| 20260502031543 | 44 | 285 | 1.0 | 6.0 | 0.00 | 0.01 | 0.01 | 80 | 1019.1 |
| 20260502031023 | 44 | 303 | 1.0 | 6.0 | 0.00 | 0.01 | 0.01 | 79 | 1018.9 |
| 20260502030526 | 44 | 259 | 0.0 | 4.0 | 0.00 | 0.01 | 0.01 | 79 | 1018.8 |
| 20260502030045 | 44 | 286 | 0.0 | 2.0 | 0.00 | 0.01 | 0.01 | 79 | 1018.8 |
| 20260502025528 | 44 | 0 | 0.0 | 3.0 | 0.00 | 0.01 | 0.01 | 79 | 1018.6 |
| 20260502025025 | 45 | 0 | 0.0 | 3.0 | 0.00 | 0.01 | 0.01 | 79 | 1018.5 |
| 20260502024541 | 45 | 312 | 0.0 | 3.0 | 0.00 | 0.01 | 0.01 | 79 | 1018.6 |
| 20260502024023 | 45 | 0 | 0.0 | 2.0 | 0.00 | 0.01 | 0.01 | 79 | 1018.6 |
| 20260502023523 | 45 | 350 | 0.0 | 2.0 | 0.00 | 0.01 | 0.01 | 79 | 1018.6 |
| 20260502023039 | 45 | 0 | 0.0 | 1.0 | 0.00 | 0.01 | 0.01 | 80 | 1018.6 |
| 20260502022523 | 45 | 0 | 0.0 | 2.0 | 0.00 | 0.01 | 0.01 | 79 | 1018.7 |
| 20260502022027 | 46 | 39 | 0.0 | 2.0 | 0.00 | 0.01 | 0.01 | 79 | 1018.7 |
| 20260502021539 | 46 | 304 | 1.0 | 2.0 | 0.00 | 0.01 | 0.01 | 80 | 1018.8 |
| 20260502021026 | 46 | 297 | 0.0 | 2.0 | 0.00 | 0.01 | 0.01 | 80 | 1018.5 |
| 20260502020524 | 46 | 313 | 1.0 | 2.0 | 0.00 | 0.01 | 0.01 | 79 | 1018.6 |
| 20260502020037 | 46 | 311 | 0.0 | 4.0 | 0.00 | 0.01 | 0.01 | 79 | 1018.5 |
| 20260502015526 | 46 | 319 | 0.0 | 4.0 | 0.00 | 0.01 | 0.01 | 79 | 1018.3 |
| 20260502015028 | 46 | 277 | 1.0 | 2.0 | 0.00 | 0.01 | 0.01 | 79 | 1018.3 |
| 20260502014545 | 46 | 0 | 0.0 | 5.0 | 0.00 | 0.01 | 0.01 | 80 | 1018.1 |
| 20260502014024 | 47 | 303 | 1.0 | 9.0 | 0.00 | 0.01 | 0.01 | 78 | 1017.9 |
| 20260502013523 | 47 | 304 | 1.0 | 9.0 | 0.00 | 0.01 | 0.01 | 78 | 1017.9 |
| 20260502013041 | 47 | 269 | 1.0 | 4.0 | 0.00 | 0.01 | 0.01 | 79 | 1017.7 |
| 20260502012523 | 47 | 281 | 2.0 | 5.0 | 0.00 | 0.01 | 0.01 | 79 | 1017.6 |
| 20260502012023 | 47 | 0 | 1.0 | 5.0 | 0.00 | 0.01 | 0.01 | 80 | 1017.4 |
| 20260502011539 | 47 | 319 | 2.0 | 5.0 | 0.00 | 0.01 | 0.01 | 82 | 1017.5 |
| 20260502011022 | 47 | 326 | 0.0 | 1.0 | 0.00 | 0.01 | 0.01 | 86 | 1017.3 |
| 20260502010523 | 48 | 330 | 0.0 | 3.0 | 0.00 | 0.01 | 0.01 | 86 | 1017.3 |
| 20260502010042 | 47 | 347 | 1.0 | 3.0 | 0.00 | 0.01 | 0.01 | 86 | 1017.3 |
| 20260502005525 | 47 | 245 | 1.0 | 2.0 | 0.00 | 0.01 | 0.01 | 87 | 1017.1 |
| 20260502005025 | 47 | 323 | 1.0 | 2.0 | 0.00 | 0.01 | 0.01 | 88 | 1017.0 |
| 20260502004544 | 47 | 0 | 0.0 | 2.0 | 0.00 | 0.01 | 0.01 | 88 | 1016.7 |
| 20260502004027 | 47 | 0 | 0.0 | 2.0 | 0.00 | 0.01 | 0.01 | 88 | 1016.7 |
| 20260502003524 | 48 | 312 | 1.0 | 2.0 | 0.00 | 0.01 | 0.01 | 88 | 1016.5 |
| 20260502003042 | 48 | 0 | 0.0 | 1.0 | 0.00 | 0.01 | 0.01 | 87 | 1016.4 |
| 20260502002528 | 48 | 0 | 0.0 | 2.0 | 0.00 | 0.01 | 0.01 | 86 | 1016.3 |
| 20260502002024 | 48 | 321 | 0.0 | 2.0 | 0.00 | 0.01 | 0.01 | 87 | 1016.1 |
| 20260502001541 | 48 | 15 | 0.0 | 2.0 | 0.00 | 0.01 | 0.01 | 87 | 1016.1 |
| 20260502001023 | 48 | 0 | 0.0 | 1.0 | 0.00 | 0.01 | 0.01 | 87 | 1016.0 |
| 20260502000523 | 48 | 0 | 0.0 | 1.0 | 0.00 | 0.01 | 0.01 | 88 | 1016.0 |
| 20260502000047 | 48 | 0 | 0.0 | 1.0 | 0.00 | 0.01 | 0.01 | 86 | 1015.7 |
| 20260501235524 | 48 | 0 | 0.0 | 1.0 | 0.00 | 0.01 | 0.01 | 87 | 1015.7 |
| 20260501235023 | 48 | 0 | 0.0 | 1.0 | 0.00 | 0.01 | 0.01 | 87 | 1015.6 |
| 20260501234547 | 48 | 0 | 0.0 | 2.0 | 0.00 | 0.01 | 0.01 | 87 | 1015.6 |
| 20260501234023 | 48 | 0 | 0.0 | 2.0 | 0.00 | 0.01 | 0.01 | 87 | 1015.7 |
| 20260501233524 | 48 | 0 | 0.0 | 2.0 | 0.00 | 0.01 | 0.01 | 86 | 1015.6 |
| 20260501233052 | 48 | 0 | 0.0 | 1.0 | 0.00 | 0.01 | 0.01 | 87 | 1015.4 |
| 20260501232523 | 48 | 0 | 0.0 | 2.0 | 0.00 | 0.01 | 0.01 | 86 | 1015.5 |
| 20260501232025 | 48 | 66 | 0.0 | 2.0 | 0.00 | 0.01 | 0.01 | 86 | 1015.4 |
| 20260501231556 | 48 | 11 | 0.0 | 2.0 | 0.00 | 0.01 | 0.01 | 88 | 1015.1 |
| 20260501231023 | 48 | 0 | 0.0 | 2.0 | 0.00 | 0.01 | 0.01 | 88 | 1015.3 |
| 20260501230525 | 48 | 0 | 0.0 | 2.0 | 0.00 | 0.01 | 0.01 | 85 | 1015.3 |
| 20260501230039 | 48 | 5 | 0.0 | 2.0 | 0.00 | 0.01 | 0.01 | 85 | 1015.2 |
| 20260501225524 | 48 | 170 | 0.0 | 1.0 | 0.00 | 0.01 | 0.01 | 85 | 1015.2 |
| 20260501225026 | 48 | 0 | 0.0 | 1.0 | 0.00 | 0.01 | 0.01 | 84 | 1015.3 |
| 20260501224539 | 49 | 110 | 0.0 | 3.0 | 0.00 | 0.01 | 0.01 | 82 | 1015.2 |
| 20260501224023 | 49 | 0 | 1.0 | 3.0 | 0.00 | 0.01 | 0.01 | 81 | 1015.4 |
| 20260501223523 | 49 | 228 | 0.0 | 3.0 | 0.00 | 0.01 | 0.01 | 80 | 1015.5 |
| 20260501223109 | 49 | 0 | 1.0 | 3.0 | 0.00 | 0.01 | 0.01 | 78 | 1015.5 |
| 20260501222524 | 49 | 282 | 1.0 | 3.0 | 0.00 | 0.01 | 0.01 | 80 | 1015.5 |
| 20260501222024 | 50 | 262 | 0.0 | 3.0 | 0.00 | 0.01 | 0.01 | 78 | 1015.6 |
| 20260501221544 | 50 | 285 | 1.0 | 4.0 | 0.00 | 0.01 | 0.01 | 78 | 1015.5 |
| 20260501221023 | 50 | 302 | 1.0 | 5.0 | 0.00 | 0.01 | 0.01 | 77 | 1015.5 |
| 20260501220523 | 50 | 302 | 1.0 | 9.0 | 0.00 | 0.01 | 0.01 | 76 | 1015.7 |
| 20260501220046 | 50 | 295 | 2.0 | 9.0 | 0.00 | 0.01 | 0.01 | 76 | 1015.7 |
| 20260501215523 | 51 | 328 | 1.0 | 7.0 | 0.00 | 0.01 | 0.01 | 74 | 1015.6 |
| 20260501215025 | 51 | 284 | 2.0 | 7.0 | 0.00 | 0.01 | 0.01 | 72 | 1015.5 |
| 20260501214542 | 52 | 278 | 2.0 | 6.0 | 0.00 | 0.01 | 0.01 | 71 | 1015.5 |
| 20260501214023 | 52 | 281 | 3.0 | 6.0 | 0.00 | 0.01 | 0.01 | 69 | 1015.4 |
| 20260501213526 | 53 | 290 | 2.0 | 8.0 | 0.00 | 0.01 | 0.01 | 67 | 1015.4 |
| 20260501213039 | 53 | 290 | 3.0 | 8.0 | 0.00 | 0.01 | 0.01 | 66 | 1015.4 |
| 20260501212523 | 54 | 276 | 4.0 | 8.0 | 0.00 | 0.01 | 0.01 | 64 | 1015.2 |
| 20260501212024 | 54 | 321 | 4.0 | 7.0 | 0.00 | 0.01 | 0.01 | 62 | 1014.9 |
| 20260501211547 | 55 | 315 | 2.0 | 7.0 | 0.00 | 0.01 | 0.01 | 61 | 1014.9 |
| 20260501211024 | 55 | 333 | 2.0 | 8.0 | 0.00 | 0.01 | 0.01 | 59 | 1014.6 |
| 20260501210523 | 56 | 227 | 5.0 | 8.0 | 0.00 | 0.01 | 0.01 | 56 | 1014.6 |
| 20260501210047 | 56 | 299 | 1.0 | 6.0 | 0.00 | 0.01 | 0.01 | 54 | 1014.4 |
| 20260501205524 | 57 | 294 | 1.0 | 6.0 | 0.00 | 0.01 | 0.01 | 52 | 1014.3 |
| 20260501205024 | 57 | 317 | 3.0 | 6.0 | 0.00 | 0.01 | 0.01 | 50 | 1013.9 |
| 20260501204555 | 57 | 331 | 3.0 | 8.0 | 0.00 | 0.01 | 0.01 | 50 | 1013.9 |
| 20260501204023 | 57 | 294 | 2.0 | 11.0 | 0.00 | 0.01 | 0.01 | 49 | 1013.8 |
| 20260501203523 | 58 | 17 | 4.0 | 11.0 | 0.00 | 0.01 | 0.01 | 47 | 1013.7 |
| 20260501203040 | 58 | 295 | 4.0 | 7.0 | 0.00 | 0.01 | 0.01 | 47 | 1013.7 |
| 20260501202523 | 58 | 313 | 2.0 | 5.0 | 0.00 | 0.01 | 0.01 | 46 | 1013.8 |
| 20260501202023 | 58 | 309 | 2.0 | 4.0 | 0.00 | 0.01 | 0.01 | 45 | 1013.6 |
| 20260501201540 | 59 | 345 | 2.0 | 7.0 | 0.00 | 0.01 | 0.01 | 46 | 1013.6 |
| 20260501201022 | 59 | 289 | 3.0 | 7.0 | 0.00 | 0.01 | 0.01 | 43 | 1013.5 |
| 20260501200523 | 59 | 354 | 3.0 | 7.0 | 0.00 | 0.01 | 0.01 | 44 | 1013.5 |
| 20260501200039 | 59 | 344 | 3.0 | 6.0 | 0.00 | 0.01 | 0.01 | 42 | 1013.6 |
| 20260501195525 | 59 | 302 | 1.0 | 4.0 | 0.00 | 0.01 | 0.01 | 41 | 1013.5 |
| 20260501195023 | 60 | 309 | 2.0 | 5.0 | 0.00 | 0.01 | 0.01 | 40 | 1013.6 |
| 20260501194543 | 60 | 277 | 2.0 | 6.0 | 0.00 | 0.01 | 0.01 | 39 | 1013.7 |
| 20260501194024 | 61 | 309 | 2.0 | 6.0 | 0.00 | 0.01 | 0.01 | 40 | 1013.5 |
| 20260501193523 | 61 | 280 | 1.0 | 5.0 | 0.00 | 0.01 | 0.01 | 40 | 1013.5 |
| 20260501193047 | 60 | 158 | 1.0 | 5.0 | 0.00 | 0.01 | 0.01 | 39 | 1013.5 |
| 20260501192525 | 61 | 329 | 2.0 | 5.0 | 0.00 | 0.01 | 0.01 | 40 | 1013.6 |
| 20260501192023 | 61 | 300 | 2.0 | 11.0 | 0.00 | 0.01 | 0.01 | 37 | 1013.5 |
| 20260501191545 | 61 | 350 | 5.0 | 11.0 | 0.00 | 0.01 | 0.01 | 38 | 1013.4 |
| 20260501191023 | 61 | 289 | 3.0 | 5.0 | 0.00 | 0.01 | 0.01 | 39 | 1013.5 |
| 20260501190524 | 60 | 148 | 3.0 | 5.0 | 0.00 | 0.01 | 0.01 | 39 | 1013.5 |
| 20260501190040 | 60 | 13 | 3.0 | 4.0 | 0.00 | 0.01 | 0.01 | 41 | 1013.7 |
| 20260501185523 | 60 | 264 | 1.0 | 5.0 | 0.00 | 0.01 | 0.01 | 42 | 1013.9 |
| 20260501185023 | 60 | 323 | 2.0 | 5.0 | 0.00 | 0.01 | 0.01 | 39 | 1014.0 |
| 20260501184539 | 61 | 317 | 2.0 | 5.0 | 0.00 | 0.01 | 0.01 | 42 | 1013.8 |
| 20260501184023 | 61 | 333 | 3.0 | 5.0 | 0.00 | 0.01 | 0.01 | 37 | 1013.9 |
| 20260501183528 | 61 | 55 | 2.0 | 8.0 | 0.00 | 0.01 | 0.01 | 39 | 1013.8 |
| 20260501183044 | 61 | 262 | 4.0 | 8.0 | 0.00 | 0.01 | 0.01 | 39 | 1013.9 |
| 20260501182524 | 61 | 296 | 2.0 | 5.0 | 0.00 | 0.01 | 0.01 | 39 | 1013.9 |
| 20260501182025 | 60 | 300 | 3.0 | 11.0 | 0.00 | 0.01 | 0.01 | 41 | 1014.1 |
| 20260501181546 | 61 | 301 | 2.0 | 11.0 | 0.00 | 0.01 | 0.01 | 46 | 1014.1 |
| 20260501181023 | 61 | 314 | 2.0 | 5.0 | 0.00 | 0.01 | 0.01 | 42 | 1014.1 |
| 20260501180523 | 61 | 249 | 1.0 | 7.0 | 0.00 | 0.01 | 0.01 | 43 | 1014.1 |
| 20260501180057 | 60 | 30 | 3.0 | 7.0 | 0.00 | 0.01 | 0.01 | 42 | 1013.9 |
| 20260501175526 | 60 | 16 | 2.0 | 9.0 | 0.00 | 0.01 | 0.01 | 41 | 1013.9 |
| 20260501175025 | 60 | 2 | 3.0 | 9.0 | 0.00 | 0.01 | 0.01 | 42 | 1013.8 |
| 20260501174556 | 60 | 23 | 3.0 | 9.0 | 0.00 | 0.01 | 0.01 | 41 | 1013.8 |
| 20260501174025 | 60 | 278 | 2.0 | 5.0 | 0.00 | 0.01 | 0.01 | 42 | 1014.2 |
| 20260501173524 | 59 | 197 | 1.0 | 7.0 | 0.00 | 0.01 | 0.01 | 46 | 1014.2 |
| 20260501173041 | 59 | 13 | 3.0 | 7.0 | 0.00 | 0.01 | 0.01 | 46 | 1014.3 |
| 20260501172525 | 59 | 342 | 2.0 | 5.0 | 0.00 | 0.01 | 0.01 | 47 | 1014.4 |
| 20260501172023 | 60 | 319 | 1.0 | 5.0 | 0.00 | 0.01 | 0.01 | 50 | 1014.4 |
| 20260501171538 | 60 | 307 | 2.0 | 4.0 | 0.00 | 0.01 | 0.01 | 47 | 1014.4 |
| 20260501171023 | 59 | 287 | 1.0 | 5.0 | 0.00 | 0.01 | 0.01 | 48 | 1014.5 |
| 20260501170524 | 59 | 353 | 3.0 | 5.0 | 0.00 | 0.01 | 0.01 | 49 | 1014.5 |
| 20260501170050 | 58 | 349 | 3.0 | 5.0 | 0.00 | 0.01 | 0.01 | 48 | 1014.6 |
| 20260501165528 | 58 | 297 | 2.0 | 4.0 | 0.00 | 0.02 | 0.01 | 52 | 1014.7 |